User: anonymous   Login
Location: Unspecified
(0.0000°N, 0.0000°E)
Time: 10:47:29
(UTC+02:00)
Language:

Cosmos 1515 Rocket - Orbit

View from above orbital plane
View from above orbital plane
View from above satellite
View from above satellite

Ground track
Ground track

The orbit data is extracted from the following two-line orbital elements,

1 14552U 83122B   15107.45787082  .00000638  00000-0  75242-4 0  9999
2 14552 082.5223 097.6997 0015800 247.6187 112.3354 14.83143909691813
Epoch (UTC): 17 April 2015 10:59:20
Eccentricity: 0.0015800
inclination: 82.5223°
perigee height: 608 km
apogee height: 630 km
right ascension of ascending node: 97.6997°
argument of perigee: 247.6187°
revolutions per day: 14.83143909
mean anomaly at epoch: 112.3354°
orbit number at epoch: 69181

The dashed part of the orbit path shows where the satellite is in the earth's shadow,  

DLR